Flag for U.S.A. Weather past 2 weeks in Tempe, Arizona, U.S.A.

Now
67 °F

Clear.


Feels Like: 67 °F
Forecast: 58 / 93 °F
Wind: 7 mph from East

Location: Phoenix Sky Harbor International Airport

Current Time: Mar 28, 2015 at 4:25:40 AM

Latest Report: Mar 28, 2015 at 3:51 AM


Visibility: 10 mi

Pressure: 29.95 "Hg

Humidity: 25%

Dew point: 30 °F

Location of TempeLocation

Historic Weather in Tempe — Graph

°F

Tempe temperature yesterday

Maximum temperature yesterday: 92 °F (at 2:51 PM)
Minimum temperature yesterday: 64 °F (at 6:51 AM)
Average temperature yesterday: 79 °F

Past Weeks' High & Low Weather Summary

 TemperatureHumidityPressure
High92 °F (Mar 27, 2:51 PM)90% (Mar 19, 5:51 AM)30.12 "Hg (Mar 19, 5:51 AM)
Low60 °F (Mar 19, 5:51 AM)6% (Mar 27, 2:51 PM)29.78 "Hg (Mar 17, 4:51 PM)
Average75 °F29%29.95 "Hg
* Reported Mar 13 2:51 AM — Mar 28 2:51 AM, Tempe, Weather by CustomWeather, © 2015

Note: Actual official high and low records may vary slightly from our data, if they occured in-between our weather recording intervals... More about our weather records

Advertising

Tempe weather history for previous 24 hours

 ConditionsComfort  
Time TempWeatherWind HumidityBarometerVisibility
2:51 AM
Sat, Mar 28
68 °FClear.5 mph24%29.96 "Hg10 mi
1:51 AM69 °FClear.6 mph23%29.96 "Hg10 mi
12:51 AM71 °FClear.No wind22%29.95 "Hg10 mi
11:51 PM
Fri, Mar 27
74 °FClear.5 mph20%29.95 "Hg10 mi
10:51 PM78 °FClear.No wind15%29.95 "Hg10 mi
9:51 PM79 °FClear.No wind15%29.94 "Hg10 mi
8:51 PM82 °FClear.No wind12%29.94 "Hg10 mi
7:51 PM86 °FClear.7 mph9%29.93 "Hg10 mi
6:51 PM90 °FClear.9 mph6%29.90 "Hg10 mi
5:51 PM92 °FSunny.8 mph6%29.90 "Hg10 mi
4:51 PM91 °FSunny.No wind6%29.91 "Hg10 mi
3:51 PM92 °FSunny.7 mph6%29.92 "Hg10 mi
2:51 PM92 °FSunny.5 mph6%29.94 "Hg10 mi
1:51 PM90 °FSunny.6 mph7%29.98 "Hg10 mi
12:51 PM90 °FSunny.5 mph7%30.01 "Hg10 mi
11:51 AM86 °FSunny.5 mph9%30.03 "Hg10 mi
10:51 AM84 °FSunny.7 mph10%30.04 "Hg10 mi
9:51 AM80 °FSunny.12 mph11%30.06 "Hg10 mi
8:51 AM75 °FSunny.8 mph16%30.06 "Hg10 mi
7:51 AM69 °FSunny.6 mph23%30.05 "Hg10 mi
6:51 AM64 °FSunny.No wind28%30.05 "Hg10 mi
5:51 AM66 °FClear.6 mph25%30.02 "Hg10 mi
4:51 AM67 °FClear.5 mph23%30.01 "Hg10 mi
Weather by CustomWeather, © 2015

See weather overviewHow to use our weather pages